Location: Fort Wayne
(41.1310°N, 85.1290°W)
Time: 19:32:01
(UTC-05:00)

BREEZE-M DEB (TANK) - Visible Passes

Search period start: 24 November 2014 00:00
Search period end: 04 December 2014 00:00
Orbit: 285 x 13618 km, 49.6° (Epoch: 23 November)

Date Brightness Start Highest point End Pass type
(mag) Time Alt. Az. Time Alt. Az. Time Alt. Az.
24 Nov 4.4 05:08:38 41° NNW 05:10:53 55° NNE 05:33:03 10° E visible
25 Nov 5.4 06:40:16 13° WNW 06:47:37 89° NNE 07:30:23 10° SE visible
26 Nov 5.1 03:56:37 37° NE 03:56:37 37° NE 04:07:43 10° E visible
27 Nov 4.6 05:28:10 36° NW 05:31:31 67° NNE 05:59:31 10° ESE visible
28 Nov 6.3 02:44:26 15° ENE 02:44:26 15° ENE 02:46:29 10° ENE visible
28 Nov 5.6 06:59:48 10° WNW 07:08:22 76° SW 07:56:01 10° SE visible
29 Nov 4.7 04:15:54 47° NNE 04:15:54 47° NNE 04:31:57 10° E visible
30 Nov 4.8 05:47:19 31° NW 05:51:42 82° NNE 06:25:32 10° ESE visible
01 Dec 6.0 03:03:28 22° ENE 03:03:28 22° ENE 03:08:33 10° ENE visible
02 Dec 4.4 04:34:48 57° N 04:35:28 58° NNE 04:56:27 10° ESE visible
03 Dec 5.0 06:06:05 26° WNW 06:11:33 83° SW 06:50:22 10° SE visible
